Regional Weather Roundup
Issued by NWS

Home | Current Version | Previous Version | Graphics & Text | Print | Product List | Glossary On
Versions: 1 2 3 4 5 6 7 8 9 10 11 12 13 14 15 16 17 18 19 20 21 22 23 24 25 26 27 28 29 30 31 32 33 34 35 36 37 38 39 40 41 42 43 44 45 46 47 48 49 50
000
ASUS43 KMKX 230611
RWRWI

WISCONSIN REGIONAL WEATHER ROUNDUP
NATIONAL WEATHER SERVICE MILWAUKEE/SULLIVAN WI
100 AM CDT WED AUG 23 2017

NOTE: "FAIR" INDICATES FEW OR NO CLOUDS BELOW 12,000 FEET WITH NO
SIGNIFICANT WEATHER AND/OR OBSTRUCTIONS TO VISIBILITY.

WIZ001-002-006>008-014>016-023>028-230700-
NORTHWEST WISCONSIN

CITY           SKY/WX    TMP DP  RH WIND       PRES   REMARKS
SUPERIOR ARPT    N/A     55  52  90 NW7       30.01R
6HR MIN TEMP:  54; 6HR MAX TEMP:  65;

ASHLAND        CLEAR     56  53  90 W7        29.98R
6HR MIN TEMP:  55; 6HR MAX TEMP:  65; 6HR PCP: TRACE;

HAYWARD        CLEAR     56  50  80 CALM      30.01R
6HR MIN TEMP:  53; 6HR MAX TEMP:  63;

SIREN          CLEAR     53  48  83 NW3       30.04R
6HR MIN TEMP:  53; 6HR MAX TEMP:  69;

CUMBERLAND     CLEAR     54  46  76 W5        30.03S
RICE LAKE      CLEAR     55  49  81 CALM      30.04R
6HR MIN TEMP:  54; 6HR MAX TEMP:  67;

CHETEK         CLEAR     58  51  76 NW6       30.02S
6HR MIN TEMP:  58; 6HR MAX TEMP:  67;

LADYSMITH      CLEAR     56  51  85 W6        30.02S
6HR MIN TEMP:  56; 6HR MAX TEMP:  67;

EAU CLAIRE     CLEAR     56  49  77 W5        30.02R
6HR MIN TEMP:  56; 6HR MAX TEMP:  70;

MENOMONIE      CLEAR     59  50  73 W6        30.03R
6HR MIN TEMP:  58; 6HR MAX TEMP:  70;

NEW RICHMOND   CLEAR     55  47  76 NW6       30.04S
6HR MIN TEMP:  54; 6HR MAX TEMP:  68;

OSCEOLA        CLEAR     56  49  76 CALM      30.07S
6HR MIN TEMP:  56; 6HR MAX TEMP:  70;

$$

WIZ003>005-009-010-017-018-230700-
NORTH CENTRAL WISCONSIN

CITY           SKY/WX    TMP DP  RH WIND       PRES   REMARKS
MANITOWISH WTR PTCLDY    52  52 100 NW6       29.96S
6HR MIN TEMP:  51; 6HR MAX TEMP:  62; 6HR PCP:  0.04;

ARBOR VITAE    CLEAR     57  55  92 NW8       29.96S
6HR MIN TEMP:  57; 6HR MAX TEMP:  63;

WOODRUFF       CLEAR     57  55  92 NW8       29.96S
6HR MIN TEMP:  57; 6HR MAX TEMP:  63;

RHINELANDER    CLEAR     52  51  97 W5        29.97R
6HR MIN TEMP:  51; 6HR MAX TEMP:  63;

EAGLE RIVER    CLEAR     54  53  96 W7        29.94S
6HR MIN TEMP:  54; 6HR MAX TEMP:  61;

LAND O LAKES   MOCLDY    55  53  92 NW5       29.96R
6HR MIN TEMP:  55; 6HR MAX TEMP:  57;

PHILLIPS       CLEAR     54  52  93 NW3       29.98S
6HR MIN TEMP:  54; 6HR MAX TEMP:  60;

TOMAHAWK         N/A     51  48  92 W3        29.98R
6HR MIN TEMP:  51; 6HR MAX TEMP:  62;

MEDFORD        CLEAR     53  48  85 W6        29.99S
6HR MIN TEMP:  53; 6HR MAX TEMP:  64;

MERRILL        CLEAR     54  52  94 W6        29.98R
$$

WIZ029-030-035-036-043>047-230700-
CENTRAL WISCONSIN

CITY           SKY/WX    TMP DP  RH WIND       PRES   REMARKS
WAUSAU         CLEAR     56  50  80 NW10      29.97R
6HR MIN TEMP:  56; 6HR MAX TEMP:  68;

MOSINEE        CLEAR     55  50  82 W8        29.99S
MARSHFIELD     CLEAR     54  47  77 W5        29.99R
6HR MIN TEMP:  54; 6HR MAX TEMP:  68;

STEVENS POINT  CLEAR     57  48  73 W3        29.99S
6HR MIN TEMP:  56; 6HR MAX TEMP:  67;

WAUPACA        CLEAR     60  50  67 W6        29.98R
6HR MIN TEMP:  60; 6HR MAX TEMP:  72;

WAUTOMA        CLEAR     55  50  83 W5        30.00R
6HR MIN TEMP:  54; 6HR MAX TEMP:  71;

WISC RAPIDS    CLEAR     57  49  74 W7        30.01R
6HR MIN TEMP:  57; 6HR MAX TEMP:  70;

CAMP DOUGLAS   CLEAR     54  48  82 W8        30.01S
6HR MIN TEMP:  51; 6HR MAX TEMP:  69;

$$

WIZ011>013-019>022-031-037>040-048>050-230700-
NORTHEAST WISCONSIN

CITY           SKY/WX    TMP DP  RH WIND       PRES   REMARKS
ANTIGO         PTCLDY    52  50  93 W6        29.97R
6HR MIN TEMP:  52; 6HR MAX TEMP:  63;

SHAWANO        CLEAR     61  50  67 W6        29.95R
6HR MIN TEMP:  61; 6HR MAX TEMP:  68;

OCONTO         CLEAR     56  51  82 W7        29.92R
6HR MIN TEMP:  56; 6HR MAX TEMP:  67;

STURGEON BAY   CLEAR     62  53  72 W9G17     29.92R
6HR MIN TEMP:  62; 6HR MAX TEMP:  68;

GREEN BAY      CLEAR     58  52  80 W8        29.94S
6HR MIN TEMP:  57; 6HR MAX TEMP:  68;

MANITOWOC      CLEAR     62  49  62 W10       29.95R
6HR MIN TEMP:  61; 6HR MAX TEMP:  71;

APPLETON       CLEAR     54  45  71 W7        29.96R
CLINTONVILLE   CLEAR     55  48  76 W7        29.96R
OSHKOSH        CLEAR     59  49  69 W5        29.97R
6HR MIN TEMP:  58; 6HR MAX TEMP:  70;

$$

WIZ032>034-041-042-053>061-230700-
SOUTHWEST WISCONSIN

CITY           SKY/WX    TMP DP  RH WIND       PRES   REMARKS
LA CROSSE      NOT AVBL
SPARTA         CLEAR     49  47  92 CALM      30.04R
6HR MIN TEMP:  48; 6HR MAX TEMP:  69;

VIROQUA        CLEAR     54  52  92 W7        30.05S
6HR MIN TEMP:  54; 6HR MAX TEMP:  67;

BOSCOBEL       CLEAR     54  52  93 CALM      30.05S
6HR MIN TEMP:  53; 6HR MAX TEMP:  73;

PRAIRIE DU CHI CLEAR     60  49  65 CALM      30.06S
6HR MIN TEMP:  60; 6HR MAX TEMP:  71;

PLATTEVILLE    CLEAR     55  53  92 W3        30.06S
6HR MIN TEMP:  55; 6HR MAX TEMP:  69;

$$

WIZ056-057-062-063-064-067-068-230700-
SOUTH CENTRAL WISCONSIN

CITY           SKY/WX    TMP DP  RH WIND       PRES   REMARKS
REEDSBURG      CLEAR     54  53  95 CALM      30.03R
6HR MIN TEMP:  54; 6HR MAX TEMP:  70;

BARABOO/DELLS  CLEAR     53  49  86 CALM      30.02S
6HR MIN TEMP:  53; 6HR MAX TEMP:  70;

LONE ROCK      CLEAR     56  54  93 W5        30.04R
6HR MIN TEMP:  53; 6HR MAX TEMP:  70;

MINERAL POINT  CLEAR     57  54  88 W6        30.06R
MADISON        CLEAR     60  51  72 VRB5      30.02R
6HR MIN TEMP:  60; 6HR MAX TEMP:  70;

MIDDLETON      CLEAR     56  52  88 CALM      30.03S
6HR MIN TEMP:  56; 6HR MAX TEMP:  70;

WATERTOWN      CLEAR     56  53  87 CALM      30.01S
6HR MIN TEMP:  56; 6HR MAX TEMP:  70;

MONROE         CLEAR     57  50  77 W12       30.04F
JANESVILLE     CLEAR     57  50  77 W3        30.02S
$$

WIZ051-052-058>065-066-070>072-230700-
SOUTHEAST WISCONSIN

CITY           SKY/WX    TMP DP  RH WIND       PRES   REMARKS
MILWAUKEE      CLEAR     65  51  60 W8        29.99R
6HR MIN TEMP:  65; 6HR MAX TEMP:  75;

WAUKESHA       CLEAR     55  48  76 W8        30.01S
MILWAUKEE/TIMM CLEAR     59  46  63 W7        30.00R
RACINE         CLEAR     61  52  72 W6        30.01R
6HR MIN TEMP:  61; 6HR MAX TEMP:  73;

KENOSHA        CLEAR     56  51  84 W6        30.01R
6HR MIN TEMP:  56; 6HR MAX TEMP:  72;

FOND DU LAC    CLEAR     58  49  72 W8        29.98R
6HR MIN TEMP:  58; 6HR MAX TEMP:  69;

SHEBOYGAN      CLEAR     58  53  84 W7        29.96S
6HR MIN TEMP:  57; 6HR MAX TEMP:  70;

WEST BEND      CLEAR     59  50  72 W8        29.98S
JUNEAU         CLEAR     55  50  84 SW3       30.01S
6HR MIN TEMP:  55; 6HR MAX TEMP:  69;

$$

LSZ147-162-230700-
LAKE SUPERIOR

STATION/POSITION TIME  TEMP    WIND        PRES    WAVE
                       AIR SEA DIR/SP/G            HT/PER
                 (UTC) (F)     (DEG/KT/KT) (MB)    (FT/S)
W MID LAKE BUOY  0450   61 60  310/ 17/ 21 1012.5R   3/ 5
DEVILS ISLAND    0600   61     320/ 14/ 15 1014.6R
SAXON HARBOR     0540   63     320/ 14/ 16 1014.2R
$$

LMZ867-665-643>646-230700-
LAKE MICHIGAN

STATION/POSITION TIME  TEMP    WIND        PRES    WAVE
                       AIR SEA DIR/SP/G            HT/PER
                 (UTC) (F)     (DEG/KT/KT) (MB)    (FT/S)
S GREEN BAY BUOY 0600   64 71  270/ 14/ 17 1013.0
N MID LAKE BUOY  0550   64 67  290/ 19/ 23 1011.2R   3/ 4
NORTHPORT PIER   0540   63     300/ 13/ 18 1011.9R
KEWAUNEE LAKESHO 0


USA.gov is the U.S. government's official web portal to all federal, state and local government web resources and services.